Nuiqsut, AK

3:36 AM AKDT on March 24, 2017 (GMT -0800)
Nuiqsut

Weather History for PAQT - October, 2012

Change the Weather History Date:

Wednesday, October 10, 2012

  Actual Average (PAKU) Record (PAKU)
Temperature  
Mean Temperature 26 °F -  
Max Temperature 28 °F 21 °F 48 °F (2006)
Min Temperature 19 °F 15 °F -7 °F (1991)
Degree Days  
Heating Degree Days 39    
Moisture  
Dew Point 24 °F    
Average Humidity 90    
Maximum Humidity 100    
Minimum Humidity 78    
Precipitation  
Precipitation 0.00 in - - ()
Sea Level Pressure  
Sea Level Pressure 30.59 in    
Wind  
Wind Speed 8 mph (WSW)    
Max Wind Speed 9 mph    
Max Gust Speed -    
Visibility 9 miles    
Events Snow    
Averages and records for this station are not official NWS values.
T = Trace of Precipitation, MM = Missing Value Source: NWS Daily Summary

Daily Weather History Graph

Daily Weather History Graph

Search for Another Location

Airport or City:

Trip Planner

Search our weather history database for the weather conditions in past years. The results will help you decide how hot, cold, wet, or windy it might be!

Date:

Astronomy

Oct. 10, 2012 Rise Set
Actual Time 8:59 AM AKDT 6:39 PM AKDT
Civil Twilight 7:57 AM AKDT 7:42 PM AKDT
Nautical Twilight 6:45 AM AKDT 8:53 PM AKDT
Astronomical Twilight 5:28 AM AKDT 10:09 PM AKDT
Moon 1:01 AM AKDT (10/10) 6:03 PM AKDT (10/10)
Length of Visible Light 11h 44m
Length of Day
9h 39m
Waning Crescent, 26% of the Moon is Illuminated
Oct 10
Waning Crescent
Oct 15
New
Oct 21
First Quarter
Oct 29
Full
Nov 6
Last Quarter

Hourly Weather History & Observations

Time (AKDT) Temp. Windchill Dew Point Humidity Pressure Visibility Wind Dir Wind Speed Gust Speed Precip Events Conditions
12:53 AM 28.9 °F 21.1 °F 28.0 °F 96% 30.66 in 3.0 mi WNW 8.1 mph - 0.00 in Snow Light Snow
1:02 AM 28.4 °F 19.7 °F 28.4 °F 100% 30.65 in 2.5 mi WNW 9.2 mph - 0.00 in Snow Light Snow
1:10 AM 28.4 °F 19.7 °F 28.4 °F 100% 30.65 in 6.0 mi West 9.2 mph - 0.00 in Snow Light Snow
1:53 AM 27.0 °F 18.7 °F 27.0 °F 100% 30.66 in 9.0 mi West 8.1 mph - 0.00 in Snow Light Snow
2:53 AM 27.0 °F 19.5 °F 27.0 °F 100% 30.66 in 10.0 mi West 6.9 mph - 0.00 in   Overcast
3:53 AM 26.1 °F 16.8 °F 25.0 °F 96% 30.65 in 10.0 mi West 9.2 mph - N/A   Overcast
4:53 AM 24.1 °F 14.4 °F 21.9 °F 91% 30.65 in 10.0 mi West 9.2 mph - N/A   Overcast
5:53 AM 25.0 °F 16.3 °F 23.0 °F 92% 30.65 in 10.0 mi West 8.1 mph - N/A   Mostly Cloudy
6:50 AM 26.6 °F 19.1 °F 24.8 °F 93% 30.64 in 10.0 mi West 6.9 mph - N/A   Overcast
6:53 AM 27.0 °F 19.5 °F 24.1 °F 89% 30.65 in 10.0 mi West 6.9 mph - N/A   Overcast
7:53 AM 27.0 °F 19.5 °F 25.0 °F 92% 30.64 in 10.0 mi West 6.9 mph - N/A   Overcast
8:09 AM 26.6 °F 18.2 °F 24.8 °F 93% 30.64 in 10.0 mi West 8.1 mph - N/A   Overcast
9:49 AM 26.6 °F 19.1 °F 26.6 °F 100% 30.62 in 10.0 mi West 6.9 mph - N/A   Overcast
9:53 AM 27.0 °F 20.5 °F 26.1 °F 96% 30.63 in 10.0 mi West 5.8 mph - N/A   Overcast
10:26 AM 26.6 °F 18.2 °F 26.6 °F 100% 30.62 in 10.0 mi West 8.1 mph - N/A   Overcast
10:53 AM 28.0 °F 20.0 °F 26.1 °F 92% 30.62 in 10.0 mi West 8.1 mph - N/A   Overcast
11:41 AM 28.4 °F 19.7 °F 24.8 °F 86% 30.62 in 10.0 mi WSW 9.2 mph - 0.00 in   Overcast
11:50 AM 28.4 °F 20.4 °F 24.8 °F 86% 30.62 in 10.0 mi WSW 8.1 mph - 0.00 in   Overcast
11:53 AM 28.0 °F 20.0 °F 25.0 °F 88% 30.62 in 10.0 mi WSW 8.1 mph - 0.00 in   Overcast
12:53 PM 27.0 °F 19.5 °F 25.0 °F 92% 30.61 in 10.0 mi WSW 6.9 mph - N/A   Overcast
1:53 PM 28.0 °F 20.0 °F 25.0 °F 88% 30.61 in 10.0 mi West 8.1 mph - N/A   Overcast
2:53 PM 28.0 °F 20.8 °F 25.0 °F 88% 30.60 in 10.0 mi West 6.9 mph - N/A   Overcast
3:53 PM 28.0 °F 20.0 °F 25.0 °F 88% 30.58 in 10.0 mi SW 8.1 mph - N/A   Overcast
4:53 PM 28.0 °F - 24.1 °F 85% 30.56 in 10.0 mi Calm Calm - N/A   Overcast
5:53 PM 27.0 °F - 21.9 °F 81% 30.55 in 10.0 mi Calm Calm - N/A   Overcast
6:53 PM 26.1 °F 18.4 °F 21.0 °F 81% 30.53 in 10.0 mi SW 6.9 mph - N/A   Overcast
7:42 PM 26.6 °F 20.0 °F 21.2 °F 80% 30.51 in 10.0 mi SSW 5.8 mph - N/A   Overcast
7:53 PM 26.1 °F 19.4 °F 21.0 °F 81% 30.51 in 10.0 mi SSW 5.8 mph - N/A   Overcast
8:08 PM 24.8 °F 17.9 °F 21.2 °F 86% 30.50 in 10.0 mi SW 5.8 mph - N/A   Overcast
8:51 PM 24.8 °F 17.9 °F 21.2 °F 86% 30.49 in 10.0 mi WSW 5.8 mph - N/A   Overcast
8:53 PM 25.0 °F 19.3 °F 21.9 °F 88% 30.49 in 10.0 mi WSW 4.6 mph - N/A   Overcast
9:53 PM 26.1 °F 18.4 °F 19.9 °F 78% 30.46 in 10.0 mi WSW 6.9 mph - N/A   Overcast
10:53 PM 24.1 °F 17.0 °F 19.9 °F 84% 30.44 in 10.0 mi SSW 5.8 mph - N/A   Overcast
11:53 PM 19.9 °F 10.1 °F 19.0 °F 96% 30.42 in 10.0 mi SSW 8.1 mph - N/A   Mostly Cloudy